RYR5DQ LPPT-LOWW

Flight info

Callsign RYR5DQ
Flight time 3h 4m
Altitude 36000
Route ORVED DCT UREDI N870 PISUS/N0432F300 N870 PONEN/N0446F360 DCT SEROX DCT VILAR DCT KARES DCT BISES DCT BCN DCT SALON DCT AGENA DCT BODEQ DCT LUMAS DCT SOSUR DCT SECON DCT ODIXU DCT ADITA DCT RAPED DCT PIGOS DCT EKSID DCT NOSTA DCT EGHIN/N0443F370 DCT ARALD DCT ABTAN ABTAN2W
Aircraft A320/M-SDE3FGHIRWY/LB1

Departure

Time 2026-05-07 18:56
Airport Lisbon Humberto Delgado Airport (LPPT)

Arrival

Time 2026-05-07 22:01
Airport Vienna International Airport (LOWW)
Time Latitude Longitude Altitude Speed Heading
2026-05-07 17:37 38.76467 -9.13683 341 ft 0 kts 167°
2026-05-07 18:46 38.76478 -9.13687 341 ft 2 kts 167°
2026-05-07 18:46 38.76492 -9.13691 341 ft 2 kts 167°
2026-05-07 18:47 38.76507 -9.13695 341 ft 2 kts 167°
2026-05-07 18:47 38.76522 -9.13699 341 ft 2 kts 167°
2026-05-07 18:47 38.76537 -9.13698 341 ft 2 kts 208°
2026-05-07 18:47 38.76548 -9.13684 341 ft 2 kts 243°
2026-05-07 18:48 38.76551 -9.13675 341 ft 1 kts 262°
2026-05-07 18:48 38.76551 -9.13668 341 ft 0 kts 259°
2026-05-07 18:50 38.76551 -9.13669 341 ft 0 kts 259°
2026-05-07 18:50 38.76543 -9.13716 341 ft 9 kts 258°
2026-05-07 18:50 38.76527 -9.13814 341 ft 11 kts 258°
2026-05-07 18:51 38.76525 -9.13914 341 ft 11 kts 312°
2026-05-07 18:51 38.76571 -9.13992 341 ft 11 kts 269°
2026-05-07 18:51 38.76559 -9.14081 341 ft 8 kts 259°
2026-05-07 18:51 38.76568 -9.14155 341 ft 9 kts 294°
2026-05-07 18:52 38.76588 -9.14218 341 ft 7 kts 293°
2026-05-07 18:52 38.76603 -9.14264 341 ft 0 kts 292°
2026-05-07 18:54 38.76615 -9.14304 341 ft 12 kts 292°
2026-05-07 18:54 38.76683 -9.14364 341 ft 12 kts 11°
2026-05-07 18:54 38.76711 -9.14352 342 ft 0 kts 25°
2026-05-07 18:55 38.76711 -9.14351 342 ft 0 kts 25°
2026-05-07 18:55 38.76867 -9.14267 344 ft 60 kts 22°
2026-05-07 18:56 38.77470 -9.13946 350 ft 125 kts 23°
2026-05-07 18:56 38.78450 -9.13433 446 ft 168 kts 18°
2026-05-07 18:56 38.79535 -9.12764 1007 ft 172 kts 27°
2026-05-07 18:56 38.80568 -9.11948 1608 ft 174 kts 28°
2026-05-07 18:57 38.81614 -9.11143 2158 ft 177 kts 27°
2026-05-07 18:57 38.82733 -9.10332 2534 ft 192 kts 26°
2026-05-07 18:57 38.83950 -9.09485 2886 ft 208 kts 26°
2026-05-07 18:57 38.85311 -9.08558 3176 ft 231 kts 26°
2026-05-07 18:58 38.86814 -9.07539 3597 ft 249 kts 27°
2026-05-07 18:58 38.88417 -9.06443 4020 ft 267 kts 30°
2026-05-07 18:58 38.89862 -9.04822 4567 ft 278 kts 55°
2026-05-07 18:58 38.90805 -9.02665 5340 ft 278 kts 67°
2026-05-07 18:59 38.91608 -9.00428 6113 ft 280 kts 69°
2026-05-07 18:59 38.92407 -8.98169 6865 ft 282 kts 69°
2026-05-07 18:59 38.93229 -8.95866 7607 ft 285 kts 69°
2026-05-07 18:59 38.94060 -8.93572 8317 ft 288 kts 69°
2026-05-07 19:00 38.94633 -8.92009 8793 ft 290 kts 68°
2026-05-07 19:00 38.95788 -8.88882 9738 ft 293 kts 68°
2026-05-07 19:00 38.96660 -8.86535 10401 ft 298 kts 68°
2026-05-07 19:00 38.97578 -8.84058 10734 ft 314 kts 68°
2026-05-07 19:01 38.98545 -8.81451 11054 ft 330 kts 68°
2026-05-07 19:01 38.99541 -8.78766 11503 ft 339 kts 67°
2026-05-07 19:01 39.00558 -8.76032 12100 ft 343 kts 67°
2026-05-07 19:01 39.01591 -8.73250 12730 ft 346 kts 67°
2026-05-07 19:02 39.02622 -8.70475 13307 ft 349 kts 67°
2026-05-07 19:02 39.03670 -8.67642 13868 ft 353 kts 67°
2026-05-07 19:02 39.04730 -8.64774 14413 ft 356 kts 67°
2026-05-07 19:02 39.05788 -8.61911 14936 ft 360 kts 67°
2026-05-07 19:03 39.06872 -8.58979 15455 ft 364 kts 66°
2026-05-07 19:03 39.07965 -8.56017 15950 ft 368 kts 66°
2026-05-07 19:03 39.09065 -8.53037 16451 ft 371 kts 66°
2026-05-07 19:03 39.10163 -8.50056 16925 ft 374 kts 66°
2026-05-07 19:04 39.11286 -8.47002 17393 ft 377 kts 66°
2026-05-07 19:04 39.12408 -8.43947 17866 ft 380 kts 66°
2026-05-07 19:04 39.13552 -8.40831 18311 ft 384 kts 66°
2026-05-07 19:04 39.14691 -8.37718 18734 ft 387 kts 66°
2026-05-07 19:05 39.15836 -8.34596 19135 ft 391 kts 66°
2026-05-07 19:05 39.16994 -8.31432 19546 ft 394 kts 66°
2026-05-07 19:05 39.18176 -8.28200 19947 ft 397 kts 66°
2026-05-07 19:05 39.19339 -8.25010 20339 ft 400 kts 66°
2026-05-07 19:06 39.20532 -8.21737 20721 ft 403 kts 66°
2026-05-07 19:06 39.22932 -8.15141 21452 ft 410 kts 66°
2026-05-07 19:06 39.24147 -8.11797 21808 ft 414 kts 66°
2026-05-07 19:07 39.25362 -8.08446 22152 ft 417 kts 66°
2026-05-07 19:07 39.26589 -8.05062 22491 ft 420 kts 66°
2026-05-07 19:07 39.27844 -8.01482 22839 ft 423 kts 68°
2026-05-07 19:07 39.28892 -7.98041 23198 ft 425 kts 70°
2026-05-07 19:08 39.30862 -7.91221 23836 ft 430 kts 71°
2026-05-07 19:08 39.31903 -7.87585 23880 ft 431 kts 70°
2026-05-07 19:08 39.32941 -7.83972 23891 ft 431 kts 70°
2026-05-07 19:09 39.33976 -7.80374 23894 ft 431 kts 70°
2026-05-07 19:09 39.35023 -7.76723 23890 ft 431 kts 70°
2026-05-07 19:09 39.36063 -7.73100 23997 ft 435 kts 70°
2026-05-07 19:09 39.37130 -7.69453 24405 ft 436 kts 68°
2026-05-07 19:10 39.38411 -7.65904 24798 ft 437 kts 63°
2026-05-07 19:10 39.39792 -7.62405 25136 ft 440 kts 63°
2026-05-07 19:10 39.41187 -7.58896 25443 ft 442 kts 63°
2026-05-07 19:10 39.42574 -7.55362 25755 ft 445 kts 63°
2026-05-07 19:11 39.43959 -7.51791 26110 ft 446 kts 63°
2026-05-07 19:11 39.45348 -7.48175 26483 ft 447 kts 63°
2026-05-07 19:11 39.46714 -7.44597 26768 ft 449 kts 63°
2026-05-07 19:11 39.48094 -7.40971 27040 ft 452 kts 63°
2026-05-07 19:12 39.49482 -7.37314 27324 ft 454 kts 63°
2026-05-07 19:12 39.50881 -7.33620 27616 ft 456 kts 64°
2026-05-07 19:12 39.52290 -7.29887 27851 ft 459 kts 64°
2026-05-07 19:12 39.53692 -7.26173 28081 ft 462 kts 63°
2026-05-07 19:13 39.55112 -7.22407 28319 ft 464 kts 63°
2026-05-07 19:13 39.56525 -7.18654 28545 ft 467 kts 63°
2026-05-07 19:13 39.57959 -7.14838 28788 ft 469 kts 63°
2026-05-07 19:13 39.59378 -7.11063 29027 ft 471 kts 63°
2026-05-07 19:14 39.60804 -7.07261 29267 ft 472 kts 63°
2026-05-07 19:14 39.62238 -7.03428 29519 ft 474 kts 63°
2026-05-07 19:14 39.63678 -6.99578 29760 ft 475 kts 63°
2026-05-07 19:14 39.65122 -6.95714 29953 ft 478 kts 63°
2026-05-07 19:15 39.66577 -6.91817 30179 ft 479 kts 63°
2026-05-07 19:15 39.68023 -6.87940 30389 ft 481 kts 63°
2026-05-07 19:15 39.69482 -6.84019 30598 ft 483 kts 63°
2026-05-07 19:15 39.70943 -6.80086 30791 ft 485 kts 63°
2026-05-07 19:16 39.72407 -6.76140 30974 ft 487 kts 63°
2026-05-07 19:16 39.73876 -6.72175 31174 ft 489 kts 63°
2026-05-07 19:16 39.75344 -6.68210 31387 ft 490 kts 63°
2026-05-07 19:16 39.76830 -6.64192 31596 ft 491 kts 63°
2026-05-07 19:17 39.78290 -6.60234 31781 ft 493 kts 63°
2026-05-07 19:17 39.79785 -6.56174 31987 ft 494 kts 62°
2026-05-07 19:17 39.81268 -6.52142 32171 ft 495 kts 62°
2026-05-07 19:17 39.82733 -6.48156 32410 ft 495 kts 62°
2026-05-07 19:18 39.84220 -6.44106 32649 ft 494 kts 62°
2026-05-07 19:18 39.85693 -6.40077 32885 ft 494 kts 63°
2026-05-07 19:18 39.87106 -6.35984 33104 ft 495 kts 64°
2026-05-07 19:18 39.88477 -6.31897 33284 ft 495 kts 64°
2026-05-07 19:19 39.89851 -6.27764 33477 ft 495 kts 65°
2026-05-07 19:19 39.91204 -6.23686 33650 ft 496 kts 64°
2026-05-07 19:19 39.92561 -6.19589 33837 ft 496 kts 64°
2026-05-07 19:19 39.93938 -6.15424 34022 ft 496 kts 64°
2026-05-07 19:20 39.95284 -6.11355 34154 ft 497 kts 64°
2026-05-07 19:20 39.96664 -6.07182 34300 ft 497 kts 64°
2026-05-07 19:20 39.98028 -6.03053 34414 ft 498 kts 64°
2026-05-07 19:20 39.99401 -5.98891 34511 ft 500 kts 64°
2026-05-07 19:21 40.00776 -5.94717 34621 ft 501 kts 64°
2026-05-07 19:21 40.02145 -5.90561 34720 ft 502 kts 64°
2026-05-07 19:21 40.03519 -5.86376 34824 ft 502 kts 64°
2026-05-07 19:21 40.04872 -5.82239 34948 ft 502 kts 64°
2026-05-07 19:22 40.06250 -5.78031 35063 ft 503 kts 64°
2026-05-07 19:22 40.07628 -5.73824 35186 ft 503 kts 64°
2026-05-07 19:22 40.10355 -5.65452 35360 ft 504 kts 64°
2026-05-07 19:23 40.13086 -5.57053 35525 ft 505 kts 64°
2026-05-07 19:23 40.14469 -5.52791 35630 ft 505 kts 64°
2026-05-07 19:23 40.15771 -5.48770 35719 ft 505 kts 63°
2026-05-07 19:24 40.18499 -5.40326 35903 ft 506 kts 63°
2026-05-07 19:24 40.21241 -5.31816 35919 ft 506 kts 64°
2026-05-07 19:25 40.23964 -5.23336 35926 ft 506 kts 64°
2026-05-07 19:25 40.26695 -5.14803 35924 ft 507 kts 64°
2026-05-07 19:26 40.29412 -5.06294 35920 ft 507 kts 63°
2026-05-07 19:26 40.32135 -4.97728 35910 ft 506 kts 63°
2026-05-07 19:27 40.34827 -4.89240 35917 ft 506 kts 63°
2026-05-07 19:27 40.37523 -4.80715 35915 ft 506 kts 63°
2026-05-07 19:28 40.40198 -4.72216 35925 ft 506 kts 63°
2026-05-07 19:28 40.42878 -4.63689 35931 ft 506 kts 63°
2026-05-07 19:29 40.45573 -4.55101 35936 ft 505 kts 63°
2026-05-07 19:29 40.48227 -4.46610 35937 ft 504 kts 63°
2026-05-07 19:30 40.50887 -4.38063 35940 ft 504 kts 63°
2026-05-07 19:30 40.53542 -4.29523 35938 ft 504 kts 64°
2026-05-07 19:31 40.56183 -4.20971 35942 ft 503 kts 63°
2026-05-07 19:31 40.58814 -4.12437 35947 ft 503 kts 63°
2026-05-07 19:32 40.61430 -4.03922 35947 ft 502 kts 63°
2026-05-07 19:32 40.64029 -3.95443 35946 ft 502 kts 63°
2026-05-07 19:33 40.66642 -3.86890 35950 ft 502 kts 63°
2026-05-07 19:33 40.69239 -3.78354 35952 ft 501 kts 63°
2026-05-07 19:34 40.71830 -3.69812 35947 ft 501 kts 63°
2026-05-07 19:34 40.74406 -3.61298 35948 ft 500 kts 63°
2026-05-07 19:35 40.76967 -3.52809 35952 ft 500 kts 63°
2026-05-07 19:35 40.79532 -3.44256 35952 ft 500 kts 63°
2026-05-07 19:36 40.82078 -3.35755 35956 ft 499 kts 63°
2026-05-07 19:36 40.84625 -3.27174 35953 ft 499 kts 65°
2026-05-07 19:37 40.86689 -3.18353 35968 ft 504 kts 71°
2026-05-07 19:37 40.88434 -3.09403 35966 ft 504 kts 72°
2026-05-07 19:38 40.90172 -3.00454 35965 ft 504 kts 72°
2026-05-07 19:38 40.91925 -2.91450 35978 ft 503 kts 71°
2026-05-07 19:39 40.93662 -2.82535 35970 ft 503 kts 72°
2026-05-07 19:39 40.95403 -2.73543 35959 ft 502 kts 72°
2026-05-07 19:40 40.97123 -2.64628 35958 ft 501 kts 72°
2026-05-07 19:40 40.98837 -2.55705 35950 ft 501 kts 71°
2026-05-07 19:41 41.00547 -2.46753 35921 ft 502 kts 72°
2026-05-07 19:41 41.02246 -2.37790 35955 ft 501 kts 72°
2026-05-07 19:42 41.03945 -2.28851 35958 ft 502 kts 72°
2026-05-07 19:42 41.05644 -2.19872 35957 ft 502 kts 72°
2026-05-07 19:43 41.07321 -2.10933 35959 ft 502 kts 73°
2026-05-07 19:43 41.08997 -2.01970 35955 ft 500 kts 72°
2026-05-07 19:44 41.10657 -1.93057 35958 ft 499 kts 73°
2026-05-07 19:44 41.12318 -1.84105 35975 ft 499 kts 73°
2026-05-07 19:45 41.13953 -1.75203 35980 ft 499 kts 73°
2026-05-07 19:45 41.15587 -1.66296 35985 ft 498 kts 73°
2026-05-07 19:46 41.16405 -1.61803 35882 ft 499 kts 73°
2026-05-07 19:46 41.17217 -1.57340 35669 ft 498 kts 73°
2026-05-07 19:46 41.18017 -1.52925 35457 ft 497 kts 73°
2026-05-07 19:46 41.18820 -1.48476 35243 ft 498 kts 73°
2026-05-07 19:47 41.19631 -1.43980 35038 ft 498 kts 73°
2026-05-07 19:47 41.20438 -1.39533 34834 ft 498 kts 73°
2026-05-07 19:47 41.21245 -1.35072 34616 ft 498 kts 73°
2026-05-07 19:47 41.22048 -1.30614 34382 ft 497 kts 73°
2026-05-07 19:48 41.22844 -1.26184 34142 ft 498 kts 73°
2026-05-07 19:48 41.23648 -1.21712 33915 ft 498 kts 74°
2026-05-07 19:48 41.24451 -1.17220 33683 ft 497 kts 74°
2026-05-07 19:48 41.25244 -1.12775 33456 ft 498 kts 74°
2026-05-07 19:49 41.26036 -1.08314 33228 ft 496 kts 74°
2026-05-07 19:49 41.26820 -1.03881 32996 ft 493 kts 74°
2026-05-07 19:49 41.27607 -0.99427 32779 ft 491 kts 75°
2026-05-07 19:49 41.28392 -0.94981 32569 ft 488 kts 75°
2026-05-07 19:50 41.29169 -0.90559 32357 ft 486 kts 75°
2026-05-07 19:50 41.29940 -0.86167 32143 ft 484 kts 75°
2026-05-07 19:50 41.30703 -0.81798 31928 ft 483 kts 76°
2026-05-07 19:50 41.31460 -0.77463 31718 ft 480 kts 76°
2026-05-07 19:51 41.32209 -0.73167 31508 ft 478 kts 76°
2026-05-07 19:51 41.32953 -0.68868 31280 ft 476 kts 76°
2026-05-07 19:51 41.33688 -0.64630 31073 ft 474 kts 77°
2026-05-07 19:51 41.34410 -0.60366 30848 ft 471 kts 79°
2026-05-07 19:52 41.34961 -0.56045 30624 ft 470 kts 83°
2026-05-07 19:52 41.35288 -0.51749 30368 ft 467 kts 88°
2026-05-07 19:52 41.35389 -0.47457 30114 ft 463 kts 91°
2026-05-07 19:52 41.35363 -0.43208 29905 ft 464 kts 92°
2026-05-07 19:53 41.35319 -0.39398 30025 ft 466 kts 92°
2026-05-07 19:53 41.35271 -0.35146 30411 ft 465 kts 92°
2026-05-07 19:53 41.35225 -0.30787 30716 ft 465 kts 93°
2026-05-07 19:53 41.35183 -0.26520 30916 ft 466 kts 93°
2026-05-07 19:54 41.35142 -0.22191 31146 ft 467 kts 93°
2026-05-07 19:54 41.35101 -0.17898 31354 ft 468 kts 93°
2026-05-07 19:54 41.35059 -0.13570 31532 ft 469 kts 93°
2026-05-07 19:54 41.35017 -0.09234 31694 ft 471 kts 93°
2026-05-07 19:55 41.34974 -0.04914 31862 ft 472 kts 93°
2026-05-07 19:55 41.34928 -0.00505 32024 ft 473 kts 93°
2026-05-07 19:55 41.34880 0.03832 32178 ft 475 kts 92°
2026-05-07 19:55 41.34831 0.08282 32346 ft 476 kts 92°
2026-05-07 19:56 41.34779 0.12676 32498 ft 477 kts 92°
2026-05-07 19:56 41.34727 0.17064 32637 ft 478 kts 92°
2026-05-07 19:56 41.34672 0.21497 32791 ft 479 kts 93°
2026-05-07 19:56 41.34617 0.25926 32909 ft 480 kts 93°
2026-05-07 19:57 41.34557 0.30406 33014 ft 482 kts 93°
2026-05-07 19:57 41.34496 0.34883 33151 ft 483 kts 93°
2026-05-07 19:57 41.34367 0.43840 33353 ft 485 kts 92°
2026-05-07 19:58 41.34301 0.48349 33497 ft 486 kts 92°
2026-05-07 19:58 41.34232 0.52826 33676 ft 486 kts 92°
2026-05-07 19:58 41.34163 0.57302 33831 ft 485 kts 92°
2026-05-07 19:58 41.34090 0.61812 33981 ft 485 kts 93°
2026-05-07 19:59 41.34018 0.66286 34089 ft 485 kts 93°
2026-05-07 19:59 41.33943 0.70789 34219 ft 484 kts 93°
2026-05-07 19:59 41.33866 0.75277 34368 ft 484 kts 94°
2026-05-07 19:59 41.33790 0.79762 34526 ft 483 kts 93°
2026-05-07 20:00 41.33710 0.84243 34662 ft 482 kts 94°
2026-05-07 20:00 41.33626 0.88716 34813 ft 481 kts 94°
2026-05-07 20:00 41.33457 0.97603 35019 ft 482 kts 94°
2026-05-07 20:01 41.33281 1.06495 35268 ft 481 kts 94°
2026-05-07 20:01 41.33188 1.10957 35388 ft 480 kts 94°
2026-05-07 20:01 41.33096 1.15389 35521 ft 480 kts 94°
2026-05-07 20:02 41.33004 1.19868 35630 ft 480 kts 94°
2026-05-07 20:02 41.32911 1.24272 35733 ft 479 kts 94°
2026-05-07 20:02 41.32718 1.33169 35885 ft 480 kts 94°
2026-05-07 20:03 41.32617 1.37586 35997 ft 480 kts 94°
2026-05-07 20:03 41.32515 1.42091 35980 ft 480 kts 94°
2026-05-07 20:03 41.32306 1.50947 36011 ft 479 kts 94°
2026-05-07 20:04 41.32091 1.59766 35988 ft 479 kts 94°
2026-05-07 20:04 41.31864 1.68662 36010 ft 480 kts 95°
2026-05-07 20:05 41.31640 1.77514 36003 ft 479 kts 95°
2026-05-07 20:05 41.31403 1.86363 35997 ft 478 kts 95°
2026-05-07 20:06 41.31159 1.95189 36006 ft 479 kts 95°
2026-05-07 20:06 41.30960 2.03999 35986 ft 478 kts 92°
2026-05-07 20:07 41.31365 2.12786 36005 ft 481 kts 85°
2026-05-07 20:07 41.32573 2.21549 36005 ft 483 kts 79°
2026-05-07 20:08 41.34132 2.30210 36013 ft 483 kts 79°
2026-05-07 20:08 41.35684 2.38860 36001 ft 482 kts 79°
2026-05-07 20:09 41.36448 2.43168 35710 ft 482 kts 79°
2026-05-07 20:09 41.37216 2.47542 35840 ft 481 kts 79°
2026-05-07 20:10 41.39500 2.60607 35977 ft 485 kts 79°
2026-05-07 20:10 41.41014 2.69302 35980 ft 485 kts 80°
2026-05-07 20:11 41.42526 2.78060 35990 ft 484 kts 80°
2026-05-07 20:11 41.44030 2.86804 35999 ft 484 kts 80°
2026-05-07 20:12 41.45521 2.95519 35991 ft 484 kts 80°
2026-05-07 20:12 41.47002 3.04222 35989 ft 484 kts 80°
2026-05-07 20:13 41.48477 3.12928 36006 ft 484 kts 81°
2026-05-07 20:13 41.49960 3.21732 36014 ft 484 kts 81°
2026-05-07 20:14 41.51433 3.30500 36015 ft 484 kts 81°
2026-05-07 20:14 41.52889 3.39230 36025 ft 484 kts 81°
2026-05-07 20:15 41.54330 3.47931 36027 ft 484 kts 81°
2026-05-07 20:15 41.55778 3.56697 36025 ft 484 kts 81°
2026-05-07 20:16 41.57228 3.65516 36029 ft 485 kts 82°
2026-05-07 20:16 41.58660 3.74300 36030 ft 485 kts 82°
2026-05-07 20:17 41.60077 3.83049 36032 ft 485 kts 82°
2026-05-07 20:17 41.61501 3.91838 36027 ft 485 kts 82°
2026-05-07 20:18 41.62927 4.00659 36022 ft 485 kts 82°
2026-05-07 20:18 41.64338 4.09460 36018 ft 485 kts 82°
2026-05-07 20:19 41.65742 4.18268 36014 ft 485 kts 82°
2026-05-07 20:19 41.67141 4.27093 36009 ft 486 kts 82°
2026-05-07 20:20 41.68537 4.35951 36005 ft 487 kts 82°
2026-05-07 20:20 41.69923 4.44792 36000 ft 487 kts 82°
2026-05-07 20:21 41.71403 4.53581 35996 ft 490 kts 75°
2026-05-07 20:21 41.74521 4.61740 35997 ft 498 kts 54°
2026-05-07 20:22 41.79444 4.68021 35999 ft 501 kts 33°
2026-05-07 20:22 41.82467 4.70286 35999 ft 500 kts 22°
2026-05-07 20:22 41.85738 4.71882 36003 ft 498 kts 15°
2026-05-07 20:23 41.92381 4.74397 36002 ft 497 kts 13°
2026-05-07 20:23 41.99060 4.76925 36001 ft 497 kts 14°
2026-05-07 20:24 42.05672 4.79518 36001 ft 499 kts 14°
2026-05-07 20:24 42.12331 4.82166 36000 ft 497 kts 14°
2026-05-07 20:25 42.18986 4.84825 36000 ft 497 kts 14°
2026-05-07 20:25 42.25611 4.87476 36001 ft 497 kts 14°
2026-05-07 20:26 42.32230 4.90134 36000 ft 496 kts 14°
2026-05-07 20:26 42.38822 4.92785 36001 ft 495 kts 14°
2026-05-07 20:27 42.45413 4.95439 36001 ft 495 kts 14°
2026-05-07 20:27 42.51989 4.98100 36001 ft 495 kts 14°
2026-05-07 20:28 42.58592 5.00758 36000 ft 495 kts 13°
2026-05-07 20:28 42.65185 5.03359 35995 ft 494 kts 13°
2026-05-07 20:29 42.71767 5.05965 35992 ft 494 kts 13°
2026-05-07 20:29 42.78260 5.09100 35989 ft 496 kts 24°
2026-05-07 20:30 42.84096 5.14073 35990 ft 499 kts 38°
2026-05-07 20:30 42.88965 5.20776 35990 ft 499 kts 52°
2026-05-07 20:31 42.93163 5.28294 35989 ft 499 kts 54°
2026-05-07 20:31 42.97351 5.35865 35993 ft 499 kts 53°
2026-05-07 20:32 43.01567 5.43376 35989 ft 500 kts 53°
2026-05-07 20:32 43.05818 5.50932 35990 ft 501 kts 53°
2026-05-07 20:33 43.10051 5.58479 35987 ft 501 kts 53°
2026-05-07 20:33 43.14170 5.66235 35992 ft 501 kts 56°
2026-05-07 20:34 43.18188 5.74031 35996 ft 500 kts 58°
2026-05-07 20:34 43.21585 5.82334 35992 ft 498 kts 68°
2026-05-07 20:35 43.23958 5.91210 36000 ft 495 kts 78°
2026-05-07 20:35 43.25386 6.00392 36003 ft 493 kts 83°
2026-05-07 20:36 43.26614 6.09625 35998 ft 493 kts 83°
2026-05-07 20:36 43.27869 6.18899 36002 ft 493 kts 83°
2026-05-07 20:37 43.29129 6.28090 36007 ft 493 kts 83°
2026-05-07 20:37 43.30391 6.37331 36010 ft 493 kts 83°
2026-05-07 20:38 43.31645 6.46575 36010 ft 493 kts 83°
2026-05-07 20:38 43.32888 6.55805 36010 ft 493 kts 83°
2026-05-07 20:39 43.34122 6.65023 36011 ft 494 kts 83°
2026-05-07 20:39 43.35361 6.74356 36011 ft 493 kts 83°
2026-05-07 20:40 43.36907 6.83544 36007 ft 496 kts 75°
2026-05-07 20:40 43.39481 6.92360 36009 ft 499 kts 65°
2026-05-07 20:41 43.43087 7.00549 36011 ft 501 kts 55°
2026-05-07 20:41 43.47169 7.08266 36009 ft 502 kts 54°
2026-05-07 20:42 43.51279 7.16029 36011 ft 501 kts 54°
2026-05-07 20:42 43.55357 7.23843 36012 ft 502 kts 54°
2026-05-07 20:43 43.59420 7.31675 36015 ft 502 kts 54°
2026-05-07 20:43 43.63461 7.39483 36017 ft 502 kts 54°
2026-05-07 20:44 43.67505 7.47318 36016 ft 503 kts 54°
2026-05-07 20:44 43.71563 7.55215 36018 ft 503 kts 54°
2026-05-07 20:45 43.75575 7.63043 36019 ft 503 kts 54°
2026-05-07 20:45 43.79607 7.70929 36022 ft 502 kts 55°
2026-05-07 20:46 43.83633 7.78812 36025 ft 502 kts 54°
2026-05-07 20:46 43.87692 7.86744 36027 ft 502 kts 54°
2026-05-07 20:47 43.91714 7.94627 36026 ft 502 kts 54°
2026-05-07 20:47 43.95725 8.02526 36025 ft 501 kts 54°
2026-05-07 20:48 43.99752 8.10482 36026 ft 502 kts 54°
2026-05-07 20:48 44.03778 8.18457 36017 ft 503 kts 54°
2026-05-07 20:49 44.07947 8.26271 36019 ft 503 kts 51°
2026-05-07 20:49 44.12284 8.33894 36009 ft 503 kts 50°
2026-05-07 20:50 44.16652 8.41576 36014 ft 503 kts 50°
2026-05-07 20:50 44.20965 8.49211 36010 ft 503 kts 50°
2026-05-07 20:51 44.25284 8.56883 36015 ft 504 kts 50°
2026-05-07 20:51 44.29597 8.64575 36006 ft 504 kts 50°
2026-05-07 20:52 44.33923 8.72306 36013 ft 505 kts 51°
2026-05-07 20:52 44.38229 8.80030 36000 ft 505 kts 51°
2026-05-07 20:53 44.42533 8.87768 35998 ft 506 kts 51°
2026-05-07 20:53 44.46837 8.95521 36005 ft 507 kts 51°
2026-05-07 20:54 44.51157 9.03326 36012 ft 508 kts 51°
2026-05-07 20:54 44.55478 9.11159 36014 ft 508 kts 51°
2026-05-07 20:55 44.59803 9.19018 36014 ft 510 kts 51°
2026-05-07 20:55 44.64099 9.26845 36021 ft 509 kts 51°
2026-05-07 20:56 44.68431 9.34759 36016 ft 509 kts 50°
2026-05-07 20:56 44.72744 9.42661 36026 ft 510 kts 50°
2026-05-07 20:57 44.77030 9.50532 36023 ft 510 kts 50°
2026-05-07 20:57 44.81332 9.58456 36013 ft 510 kts 50°
2026-05-07 20:58 44.85643 9.66426 36005 ft 510 kts 51°
2026-05-07 20:58 44.89956 9.74408 36002 ft 511 kts 51°
2026-05-07 20:59 44.94239 9.82369 36007 ft 512 kts 50°
2026-05-07 20:59 44.98492 9.90288 36009 ft 512 kts 51°
2026-05-07 21:00 45.02838 9.98408 36016 ft 511 kts 50°
2026-05-07 21:00 45.07110 10.06408 36021 ft 510 kts 50°
2026-05-07 21:01 45.11388 10.14447 36019 ft 509 kts 50°
2026-05-07 21:01 45.15645 10.22465 36021 ft 510 kts 50°
2026-05-07 21:02 45.19908 10.30518 36028 ft 507 kts 50°
2026-05-07 21:02 45.24149 10.38549 36030 ft 508 kts 50°
2026-05-07 21:03 45.28395 10.46619 36031 ft 507 kts 50°
2026-05-07 21:03 45.32596 10.54620 36034 ft 506 kts 50°
2026-05-07 21:04 45.36777 10.62612 36034 ft 505 kts 50°
2026-05-07 21:04 45.40968 10.70636 36037 ft 505 kts 51°
2026-05-07 21:05 45.45166 10.78704 36041 ft 505 kts 51°
2026-05-07 21:05 45.49335 10.86736 36045 ft 503 kts 51°
2026-05-07 21:06 45.53490 10.94764 36049 ft 503 kts 51°
2026-05-07 21:06 45.57673 11.02872 36057 ft 501 kts 51°
2026-05-07 21:07 45.61781 11.10856 36058 ft 501 kts 51°
2026-05-07 21:07 45.65912 11.18907 36059 ft 500 kts 51°
2026-05-07 21:08 45.69997 11.26892 36063 ft 498 kts 51°
2026-05-07 21:08 45.73920 11.34576 36068 ft 498 kts 51°
2026-05-07 21:09 45.78017 11.42628 36066 ft 497 kts 51°
2026-05-07 21:09 45.82062 11.50601 36073 ft 496 kts 51°
2026-05-07 21:10 45.86120 11.58621 36076 ft 495 kts 51°
2026-05-07 21:10 45.90157 11.66624 36074 ft 495 kts 51°
2026-05-07 21:11 45.94188 11.74635 36074 ft 495 kts 51°
2026-05-07 21:11 46.00233 11.86691 36073 ft 495 kts 52°
2026-05-07 21:12 46.04229 11.94692 36068 ft 495 kts 51°
2026-05-07 21:12 46.08254 12.02773 36059 ft 495 kts 51°
2026-05-07 21:13 46.12255 12.10830 36064 ft 494 kts 52°
2026-05-07 21:13 46.16250 12.18896 36053 ft 494 kts 52°
2026-05-07 21:14 46.20243 12.26985 36093 ft 494 kts 51°
2026-05-07 21:14 46.24226 12.35074 36062 ft 494 kts 51°
2026-05-07 21:15 46.28206 12.43177 36063 ft 495 kts 51°
2026-05-07 21:15 46.32191 12.51316 36078 ft 494 kts 51°
2026-05-07 21:16 46.36151 12.59433 36083 ft 494 kts 51°
2026-05-07 21:16 46.40116 12.67577 36077 ft 494 kts 52°
2026-05-07 21:17 46.44079 12.75741 36079 ft 495 kts 52°
2026-05-07 21:17 46.48020 12.83892 36094 ft 494 kts 52°
2026-05-07 21:18 46.51971 12.92083 36102 ft 494 kts 52°
2026-05-07 21:18 46.55901 13.00256 36099 ft 495 kts 52°
2026-05-07 21:19 46.59856 13.08505 36123 ft 495 kts 52°
2026-05-07 21:19 46.63763 13.16685 36116 ft 494 kts 52°
2026-05-07 21:20 46.67663 13.24978 36130 ft 495 kts 55°
2026-05-07 21:20 46.71066 13.33741 36139 ft 497 kts 60°
2026-05-07 21:21 46.74242 13.42727 36117 ft 497 kts 60°
2026-05-07 21:21 46.77387 13.51663 36101 ft 496 kts 60°
2026-05-07 21:22 46.80544 13.60619 36077 ft 497 kts 60°
2026-05-07 21:22 46.82106 13.65052 35850 ft 496 kts 61°
2026-05-07 21:22 46.83688 13.69550 35646 ft 494 kts 61°
2026-05-07 21:23 46.85275 13.74073 35454 ft 492 kts 61°
2026-05-07 21:23 46.86824 13.78496 35252 ft 490 kts 61°
2026-05-07 21:23 46.88400 13.83001 34960 ft 488 kts 61°
2026-05-07 21:23 46.89957 13.87457 34474 ft 489 kts 61°
2026-05-07 21:24 46.91511 13.91912 33771 ft 492 kts 61°
2026-05-07 21:24 46.93075 13.96405 33032 ft 495 kts 61°
2026-05-07 21:24 46.94621 14.00854 32291 ft 497 kts 60°
2026-05-07 21:24 46.96177 14.05337 31626 ft 496 kts 60°
2026-05-07 21:25 46.97731 14.09828 31149 ft 490 kts 60°
2026-05-07 21:25 46.99266 14.14268 30666 ft 485 kts 60°
2026-05-07 21:25 47.00811 14.18744 30160 ft 481 kts 60°
2026-05-07 21:25 47.02311 14.23095 29665 ft 476 kts 60°
2026-05-07 21:26 47.03797 14.27412 29202 ft 471 kts 61°
2026-05-07 21:26 47.05271 14.31701 28697 ft 467 kts 61°
2026-05-07 21:26 47.06736 14.35981 28200 ft 462 kts 61°
2026-05-07 21:26 47.08165 14.40158 27688 ft 457 kts 61°
2026-05-07 21:27 47.09584 14.44312 27151 ft 453 kts 62°
2026-05-07 21:27 47.10863 14.48455 26655 ft 449 kts 66°
2026-05-07 21:27 47.11921 14.52797 26150 ft 445 kts 71°
2026-05-07 21:27 47.12753 14.57243 25644 ft 440 kts 75°
2026-05-07 21:28 47.13495 14.61612 25171 ft 434 kts 75°
2026-05-07 21:28 47.14209 14.65887 24716 ft 428 kts 76°
2026-05-07 21:28 47.14933 14.70184 24268 ft 422 kts 76°
2026-05-07 21:28 47.15649 14.74400 23825 ft 416 kts 76°
2026-05-07 21:29 47.16344 14.78461 23366 ft 411 kts 76°
2026-05-07 21:29 47.17041 14.82541 22906 ft 406 kts 76°
2026-05-07 21:29 47.17729 14.86572 22439 ft 402 kts 76°
2026-05-07 21:29 47.18403 14.90538 21978 ft 398 kts 76°
2026-05-07 21:30 47.19068 14.94465 21515 ft 394 kts 76°
2026-05-07 21:30 47.19733 14.98406 21062 ft 390 kts 76°
2026-05-07 21:30 47.20390 15.02307 20603 ft 387 kts 76°
2026-05-07 21:30 47.21037 15.06160 20157 ft 384 kts 76°
2026-05-07 21:31 47.21680 15.09997 19703 ft 381 kts 75°
2026-05-07 21:31 47.22310 15.13760 19259 ft 379 kts 75°
2026-05-07 21:31 47.22934 15.17499 18809 ft 376 kts 75°
2026-05-07 21:31 47.23556 15.21232 18357 ft 374 kts 75°
2026-05-07 21:32 47.24172 15.24938 17921 ft 371 kts 75°
2026-05-07 21:32 47.24785 15.28638 17484 ft 369 kts 75°
2026-05-07 21:32 47.25386 15.32272 17051 ft 367 kts 75°
2026-05-07 21:32 47.25987 15.35913 16614 ft 365 kts 75°
2026-05-07 21:33 47.26580 15.39516 16178 ft 363 kts 75°
2026-05-07 21:33 47.27180 15.43164 15737 ft 361 kts 75°
2026-05-07 21:33 47.27772 15.46780 15300 ft 360 kts 75°
2026-05-07 21:33 47.28355 15.50340 14861 ft 358 kts 75°
2026-05-07 21:34 47.28940 15.53917 14419 ft 356 kts 75°
2026-05-07 21:34 47.29525 15.57508 13980 ft 355 kts 75°
2026-05-07 21:34 47.30098 15.61026 13549 ft 353 kts 75°
2026-05-07 21:34 47.30664 15.64516 13120 ft 351 kts 75°
2026-05-07 21:35 47.31218 15.67932 12700 ft 348 kts 76°
2026-05-07 21:35 47.31775 15.71380 12278 ft 346 kts 76°
2026-05-07 21:35 47.32326 15.74794 11860 ft 343 kts 76°
2026-05-07 21:35 47.32884 15.78266 11430 ft 340 kts 76°
2026-05-07 21:36 47.33432 15.81681 11011 ft 337 kts 76°
2026-05-07 21:36 47.33970 15.85041 10592 ft 334 kts 76°
2026-05-07 21:36 47.34507 15.88394 10264 ft 327 kts 76°
2026-05-07 21:36 47.35014 15.91580 10141 ft 314 kts 76°
2026-05-07 21:37 47.35509 15.94697 10018 ft 301 kts 76°
2026-05-07 21:37 47.35984 15.97685 9708 ft 298 kts 76°
2026-05-07 21:37 47.36467 16.00681 9336 ft 295 kts 73°
2026-05-07 21:37 47.37379 16.03362 8937 ft 290 kts 44°
2026-05-07 21:38 47.39087 16.04899 8872 ft 280 kts 17°
2026-05-07 21:38 47.40958 16.05746 8899 ft 281 kts 15°
2026-05-07 21:38 47.42854 16.06620 8923 ft 281 kts 15°
2026-05-07 21:38 47.44735 16.07514 8942 ft 281 kts 16°
2026-05-07 21:39 47.46588 16.08409 8961 ft 275 kts 17°
2026-05-07 21:39 47.48348 16.09270 8973 ft 259 kts 17°
2026-05-07 21:39 47.50009 16.10092 8984 ft 243 kts 17°
2026-05-07 21:39 47.51619 16.10890 9000 ft 237 kts 17°
2026-05-07 21:40 47.53208 16.11678 9008 ft 237 kts 17°
2026-05-07 21:40 47.54789 16.12462 9012 ft 237 kts 17°
2026-05-07 21:40 47.56383 16.13255 9014 ft 237 kts 17°
2026-05-07 21:40 47.57964 16.14041 9014 ft 237 kts 17°
2026-05-07 21:41 47.59525 16.14819 9015 ft 236 kts 17°
2026-05-07 21:41 47.61108 16.15610 9015 ft 236 kts 16°
2026-05-07 21:41 47.62662 16.16384 9014 ft 236 kts 17°
2026-05-07 21:41 47.64238 16.17172 9014 ft 236 kts 16°
2026-05-07 21:42 47.65815 16.17959 9010 ft 235 kts 17°
2026-05-07 21:42 47.67390 16.18747 9012 ft 235 kts 15°
2026-05-07 21:42 47.68966 16.19534 9008 ft 234 kts 17°
2026-05-07 21:42 47.70512 16.20306 9006 ft 233 kts 17°
2026-05-07 21:43 47.72095 16.21102 9009 ft 234 kts 16°
2026-05-07 21:43 47.73649 16.21878 9010 ft 234 kts 17°
2026-05-07 21:43 47.75206 16.22669 9009 ft 235 kts 20°
2026-05-07 21:43 47.76673 16.23780 9013 ft 237 kts 32°
2026-05-07 21:44 47.77927 16.25328 9013 ft 238 kts 43°
2026-05-07 21:44 47.79077 16.27124 9015 ft 238 kts 45°
2026-05-07 21:44 47.80217 16.28970 9013 ft 238 kts 45°
2026-05-07 21:44 47.81357 16.30813 9014 ft 239 kts 45°
2026-05-07 21:45 47.82475 16.32611 9018 ft 238 kts 45°
2026-05-07 21:45 47.83608 16.34427 9016 ft 237 kts 45°
2026-05-07 21:45 47.84756 16.36261 9017 ft 237 kts 45°
2026-05-07 21:45 47.85893 16.38078 9017 ft 237 kts 45°
2026-05-07 21:46 47.87024 16.39885 9013 ft 236 kts 45°
2026-05-07 21:46 47.88030 16.41834 9011 ft 238 kts 57°
2026-05-07 21:46 47.88737 16.44078 9007 ft 239 kts 69°
2026-05-07 21:46 47.89217 16.46452 9003 ft 240 kts 72°
2026-05-07 21:47 47.89636 16.48849 9006 ft 241 kts 78°
2026-05-07 21:47 47.89575 16.51372 9004 ft 245 kts 104°
2026-05-07 21:47 47.88776 16.53670 9007 ft 247 kts 130°
2026-05-07 21:47 47.87414 16.55257 9001 ft 248 kts 155°
2026-05-07 21:48 47.85753 16.56068 9003 ft 249 kts 165°
2026-05-07 21:48 47.85280 16.56252 9002 ft 248 kts 165°
2026-05-07 21:48 47.83432 16.56956 9003 ft 248 kts 165°
2026-05-07 21:48 47.81727 16.57621 9007 ft 249 kts 165°
2026-05-07 21:49 47.80054 16.58292 8999 ft 249 kts 164°
2026-05-07 21:49 47.78392 16.58975 8995 ft 249 kts 164°
2026-05-07 21:49 47.76740 16.59660 8980 ft 237 kts 164°
2026-05-07 21:49 47.75191 16.60303 8984 ft 229 kts 164°
2026-05-07 21:50 47.73650 16.60943 8992 ft 228 kts 164°
2026-05-07 21:50 47.72116 16.61573 8995 ft 228 kts 164°
2026-05-07 21:50 47.70544 16.62216 8972 ft 229 kts 164°
2026-05-07 21:50 47.69007 16.62918 8651 ft 230 kts 153°
2026-05-07 21:51 47.67777 16.64415 8319 ft 228 kts 121°
2026-05-07 21:51 47.67193 16.66596 8016 ft 223 kts 93°
2026-05-07 21:51 47.67322 16.68827 7751 ft 216 kts 72°
2026-05-07 21:51 47.67744 16.70939 7519 ft 214 kts 70°
2026-05-07 21:52 47.68353 16.72934 7230 ft 210 kts 48°
2026-05-07 21:52 47.69514 16.74243 6955 ft 205 kts 15°
2026-05-07 21:52 47.70919 16.74582 6699 ft 204 kts 359°
2026-05-07 21:52 47.72356 16.74376 6425 ft 202 kts 348°
2026-05-07 21:53 47.73735 16.73920 6179 ft 200 kts 346°
2026-05-07 21:53 47.75088 16.73408 5944 ft 200 kts 344°
2026-05-07 21:53 47.76439 16.72871 5686 ft 199 kts 345°
2026-05-07 21:53 47.77762 16.72332 5444 ft 198 kts 343°
2026-05-07 21:54 47.79098 16.71777 5207 ft 197 kts 343°
2026-05-07 21:54 47.80417 16.71222 4999 ft 195 kts 343°
2026-05-07 21:54 47.81728 16.70666 4805 ft 194 kts 343°
2026-05-07 21:54 47.83036 16.70109 4618 ft 194 kts 343°
2026-05-07 21:55 47.84352 16.69546 4431 ft 193 kts 342°
2026-05-07 21:55 47.85676 16.68980 4242 ft 193 kts 342°
2026-05-07 21:55 47.86966 16.68429 4057 ft 192 kts 342°
2026-05-07 21:55 47.88247 16.67882 3868 ft 191 kts 342°
2026-05-07 21:56 47.89532 16.67335 3682 ft 191 kts 342°
2026-05-07 21:56 47.90801 16.66795 3499 ft 191 kts 341°
2026-05-07 21:56 47.92077 16.66253 3463 ft 190 kts 341°
2026-05-07 21:56 47.93346 16.65714 3471 ft 190 kts 341°
2026-05-07 21:57 47.94634 16.65168 3424 ft 192 kts 341°
2026-05-07 21:57 47.95940 16.64615 3235 ft 188 kts 341°
2026-05-07 21:57 47.97170 16.64096 3028 ft 181 kts 341°
2026-05-07 21:57 47.98364 16.63591 2749 ft 171 kts 340°
2026-05-07 21:58 47.99492 16.63115 2491 ft 159 kts 340°
2026-05-07 21:58 48.00510 16.62686 2278 ft 148 kts 339°
2026-05-07 21:58 48.01494 16.62267 2084 ft 147 kts 339°
2026-05-07 21:58 48.02489 16.61844 1892 ft 146 kts 339°
2026-05-07 21:59 48.03476 16.61436 1695 ft 146 kts 339°
2026-05-07 21:59 48.04466 16.61032 1446 ft 145 kts 339°
2026-05-07 21:59 48.05436 16.60617 1278 ft 144 kts 339°
2026-05-07 21:59 48.06418 16.60195 1147 ft 145 kts 338°
2026-05-07 22:00 48.07381 16.59766 895 ft 144 kts 339°
2026-05-07 22:00 48.08348 16.59351 766 ft 144 kts 340°
2026-05-07 22:00 48.09314 16.58950 642 ft 133 kts 339°
2026-05-07 22:00 48.10093 16.58607 613 ft 95 kts 343°
2026-05-07 22:01 48.10569 16.58412 612 ft 45 kts 344°
2026-05-07 22:01 48.10746 16.58337 611 ft 21 kts 344°
2026-05-07 22:01 48.10915 16.58263 609 ft 23 kts 333°
2026-05-07 22:01 48.11026 16.58108 608 ft 21 kts 303°
2026-05-07 22:02 48.11089 16.57925 608 ft 18 kts 296°
2026-05-07 22:02 48.11147 16.57748 608 ft 19 kts 297°
2026-05-07 22:02 48.11202 16.57568 608 ft 19 kts 301°
2026-05-07 22:02 48.11265 16.57389 607 ft 19 kts 295°
2026-05-07 22:03 48.11324 16.57200 606 ft 20 kts 296°
2026-05-07 22:03 48.11389 16.57008 604 ft 21 kts 297°
2026-05-07 22:03 48.11454 16.56807 603 ft 21 kts 296°
2026-05-07 22:03 48.11521 16.56600 600 ft 22 kts 296°
2026-05-07 22:04 48.11590 16.56385 598 ft 23 kts 296°
2026-05-07 22:04 48.11663 16.56161 596 ft 24 kts 296°
2026-05-07 22:04 48.11737 16.55936 593 ft 24 kts 294°
2026-05-07 22:04 48.11810 16.55707 592 ft 21 kts 295°
2026-05-07 22:05 48.11866 16.55675 591 ft 0 kts 29°
2026-05-07 22:05 48.11869 16.55677 591 ft 1 kts 29°
2026-05-07 22:05 48.11878 16.55685 591 ft 0 kts 27°
2026-05-07 22:06 48.11887 16.55691 591 ft 2 kts 27°
2026-05-07 22:06 48.11904 16.55704 591 ft 0 kts 26°